sat.trackr.live / text

‹ back to catalog

CONNECTA IOT-5

NORAD 62703 · 2025-009CY

PAYLOAD ACTIVE UNKNOWN

§ Identity

Operator
Country
TURK
Launch date
2025-01-14
Launch site
AFWTR
Launch vehicle
Mass (kg)
RCS (m²)

External: N2YO · Heavens-Above · Gunter

§ Orbital elements

Epoch: 2026-05-25T04:17:54.366144Z

Period
96.38 min
Inclination
97.7027°
Eccentricity
0.0003649
Mean motion
14.94105617 rev/d
Perigee alt
582.6 km
Apogee alt
587.7 km
Semi-major
6,963.3 km
B*
1.0244e-4
RAAN
224.2174°
Arg perigee
121.5943°
Mean anomaly
238.5634°
Rev number
7,393

§ Raw data

CONNECTA IOT-51 62703U 25009CY  26145.17910146  .00001039  00000+0  10244-3 0  99972 62703  97.7027 224.2174 0003649 121.5943 238.5634 14.94105617 73932

JSON: /api/v1/satellites/62703 · /tle

For live sub-satellite position, see the globe view (requires WebGL).

§ Visibility from observer

Set your observer location to see the next 7 days of passes ≥ 10°. The values pass through the URL so the page stays shareable.

No JS? Fill the form by hand. The geolocation button needs JavaScript.

§ Radio — SatNOGS DB

ModeDescriptionDownlinkUplink
GMSK Mode S - GMSK 4k8 AX.25 TLM 2.240 GHz
GMSK Mode U - GMSK 4k8 AX.25 TLM 401.510 MHz

2 transmitters · refreshed weekly from db.satnogs.org